| time (UTC) | temp F | wind direction | speed MPH | gust MPH | rain 1hr in | rain 24hr in | rain mn in | humidity % | barometer mb |
| 20260902024105 | 53 | 239 | 0.0 | 0.0 | 0.00 | 0.00 | 0.00 | 85 | 1019.9 |
| 20260902023105 | 53 | 227 | 0.0 | 2.0 | 0.00 | 0.00 | 0.00 | 85 | 1019.7 |
| 20260902022605 | 54 | 229 | 0.0 | 3.0 | 0.00 | 0.00 | 0.00 | 85 | 1019.8 |
| 20260902022106 | 54 | 221 | 2.0 | 3.0 | 0.00 | 0.00 | 0.00 | 85 | 1019.8 |
| 20260902021605 | 54 | 200 | 1.0 | 2.0 | 0.00 | 0.00 | 0.00 | 85 | 1019.9 |
| 20260902021106 | 54 | 194 | 2.0 | 3.0 | 0.00 | 0.00 | 0.00 | 84 | 1019.9 |
| 20260902020605 | 54 | 207 | 1.0 | 3.0 | 0.00 | 0.00 | 0.00 | 84 | 1019.9 |
| 20260902020106 | 54 | 196 | 1.0 | 3.0 | 0.00 | 0.00 | 0.00 | 85 | 1019.9 |
| 20260902015106 | 54 | 188 | 1.0 | 2.0 | 0.00 | 0.00 | 0.00 | 85 | 1020.0 |
| 20260902014605 | 54 | 188 | 1.0 | 2.0 | 0.00 | 0.00 | 0.00 | 85 | 1020.0 |
| 20260902014106 | 54 | 186 | 1.0 | 3.0 | 0.00 | 0.00 | 0.00 | 84 | 1020.0 |
| 20260902012605 | 54 | 183 | 1.0 | 3.0 | 0.00 | 0.00 | 0.00 | 81 | 1020.0 |
| 20260902012105 | 54 | 183 | 2.0 | 3.0 | 0.00 | 0.00 | 0.00 | 81 | 1019.9 |
| 20260902011605 | 54 | 182 | 2.0 | 5.0 | 0.00 | 0.00 | 0.00 | 81 | 1019.9 |
| 20260902011105 | 54 | 175 | 3.0 | 3.0 | 0.00 | 0.00 | 0.00 | 81 | 1019.9 |
| 20260902010606 | 54 | 175 | 2.0 | 3.0 | 0.00 | 0.00 | 0.00 | 82 | 1019.9 |
| 20260902010105 | 54 | 175 | 2.0 | 3.0 | 0.00 | 0.00 | 0.00 | 83 | 1019.9 |
| 20260902005105 | 54 | 175 | 2.0 | 5.0 | 0.00 | 0.00 | 0.00 | 81 | 1020.0 |
| 20260902004106 | 55 | 176 | 3.0 | 5.0 | 0.00 | 0.00 | 0.00 | 80 | 1020.0 |
| 20260902003105 | 55 | 177 | 3.0 | 5.0 | 0.00 | 0.00 | 0.00 | 80 | 1020.1 |
| 20260902002605 | 55 | 177 | 0.0 | 0.0 | 0.00 | 0.00 | 0.00 | 80 | 1020.2 |
| 20260902002105 | 55 | 177 | 0.0 | 0.0 | 0.00 | 0.00 | 0.00 | 80 | 1020.1 |
| 20260902001105 | 55 | 177 | 0.0 | 0.0 | 0.00 | 0.00 | 0.00 | 79 | 1020.2 |
| 20260902000106 | 55 | 177 | 2.0 | 3.0 | 0.00 | 0.00 | 0.00 | 78 | 1020.3 |
| 20260901235605 | 55 | 177 | 2.0 | 3.0 | 0.00 | 0.00 | 0.00 | 78 | 1020.3 |
| 20260901235106 | 55 | 176 | 2.0 | 3.0 | 0.00 | 0.00 | 0.00 | 78 | 1020.3 |
| 20260901234606 | 55 | 177 | 2.0 | 3.0 | 0.00 | 0.00 | 0.00 | 79 | 1020.3 |
| 20260901234105 | 55 | 177 | 1.0 | 3.0 | 0.00 | 0.00 | 0.00 | 78 | 1020.3 |
| 20260901233607 | 55 | 176 | 3.0 | 5.0 | 0.00 | 0.00 | 0.00 | 78 | 1020.2 |
| 20260901233105 | 55 | 176 | 2.0 | 3.0 | 0.00 | 0.00 | 0.00 | 78 | 1020.2 |
| 20260901232105 | 55 | 176 | 3.0 | 6.0 | 0.00 | 0.00 | 0.00 | 78 | 1020.2 |
| 20260901230605 | 55 | 166 | 4.0 | 9.0 | 0.00 | 0.00 | 0.00 | 78 | 1020.1 |
| 20260901230105 | 55 | 166 | 5.0 | 8.0 | 0.00 | 0.00 | 0.00 | 80 | 1020.1 |
| 20260901225605 | 55 | 317 | 5.0 | 7.0 | 0.00 | 0.00 | 0.00 | 79 | 1020.1 |
| 20260901225105 | 55 | 153 | 6.0 | 10.0 | 0.00 | 0.00 | 0.00 | 78 | 1020.1 |
| 20260901224105 | 55 | 152 | 6.0 | 12.0 | 0.00 | 0.00 | 0.00 | 78 | 1020.1 |
| 20260901223605 | 56 | 153 | 7.0 | 12.0 | 0.00 | 0.00 | 0.00 | 79 | 1020.1 |
| 20260901223105 | 56 | 71 | 6.0 | 10.0 | 0.00 | 0.00 | 0.00 | 81 | 1020.0 |
| 20260901222605 | 55 | 145 | 8.0 | 12.0 | 0.00 | 0.00 | 0.00 | 80 | 1020.1 |
| 20260901222105 | 55 | 149 | 6.0 | 13.0 | 0.00 | 0.00 | 0.00 | 78 | 1020.1 |
| 20260901221605 | 55 | 166 | 5.0 | 8.0 | 0.00 | 0.00 | 0.00 | 77 | 1020.1 |
| 20260901221105 | 55 | 165 | 6.0 | 8.0 | 0.00 | 0.00 | 0.00 | 77 | 1020.1 |
| 20260901220605 | 55 | 160 | 6.0 | 7.0 | 0.00 | 0.00 | 0.00 | 77 | 1020.1 |
| 20260901220105 | 55 | 177 | 5.0 | 7.0 | 0.00 | 0.00 | 0.00 | 77 | 1020.1 |
| 20260901215605 | 55 | 161 | 5.0 | 8.0 | 0.00 | 0.00 | 0.00 | 78 | 1020.1 |
| 20260901215104 | 55 | 163 | 5.0 | 12.0 | 0.00 | 0.00 | 0.00 | 76 | 1020.1 |
| 20260901214605 | 55 | 144 | 7.0 | 12.0 | 0.00 | 0.00 | 0.00 | 76 | 1020.1 |
| 20260901214105 | 55 | 146 | 6.0 | 9.0 | 0.00 | 0.00 | 0.00 | 79 | 1020.1 |
| 20260901213605 | 55 | 153 | 6.0 | 9.0 | 0.00 | 0.00 | 0.00 | 78 | 1020.1 |
| 20260901213105 | 55 | 171 | 6.0 | 7.0 | 0.00 | 0.00 | 0.00 | 77 | 1020.1 |
| 20260901212605 | 55 | 167 | 5.0 | 8.0 | 0.00 | 0.00 | 0.00 | 78 | 1020.2 |
| 20260901212105 | 55 | 172 | 5.0 | 7.0 | 0.00 | 0.00 | 0.00 | 80 | 1020.1 |
| 20260901211605 | 55 | 162 | 5.0 | 7.0 | 0.00 | 0.00 | 0.00 | 80 | 1020.0 |
| 20260901211104 | 55 | 165 | 5.0 | 7.0 | 0.00 | 0.00 | 0.00 | 81 | 1020.0 |
| 20260901210605 | 55 | 165 | 5.0 | 6.0 | 0.00 | 0.00 | 0.00 | 83 | 1020.0 |
| 20260901210105 | 55 | 165 | 5.0 | 6.0 | 0.00 | 0.00 | 0.00 | 83 | 1020.0 |
| 20260901205605 | 55 | 171 | 3.0 | 5.0 | 0.00 | 0.00 | 0.00 | 84 | 1020.1 |
| 20260901205105 | 55 | 181 | 2.0 | 3.0 | 0.00 | 0.00 | 0.00 | 84 | 1020.1 |
| 20260901204605 | 55 | 186 | 0.0 | 1.0 | 0.00 | 0.00 | 0.00 | 84 | 1020.2 |
| 20260901204105 | 55 | 189 | 1.0 | 2.0 | 0.00 | 0.00 | 0.00 | 85 | 1020.1 |
| 20260901203605 | 55 | 185 | 3.0 | 3.0 | 0.00 | 0.00 | 0.00 | 85 | 1020.1 |
| 20260901202605 | 55 | 190 | 2.0 | 3.0 | 0.00 | 0.00 | 0.00 | 85 | 1020.1 |
| 20260901202105 | 55 | 189 | 2.0 | 3.0 | 0.00 | 0.00 | 0.00 | 85 | 1020.2 |
| 20260901201605 | 55 | 197 | 2.0 | 3.0 | 0.00 | 0.00 | 0.00 | 85 | 1020.2 |
| 20260901201105 | 55 | 186 | 3.0 | 3.0 | 0.00 | 0.00 | 0.00 | 85 | 1020.2 |
| 20260901200605 | 55 | 178 | 3.0 | 5.0 | 0.00 | 0.00 | 0.00 | 85 | 1020.1 |
| 20260901200105 | 55 | 183 | 3.0 | 6.0 | 0.00 | 0.00 | 0.00 | 85 | 1020.0 |
| 20260901195604 | 55 | 169 | 5.0 | 6.0 | 0.00 | 0.00 | 0.00 | 85 | 1020.0 |
| 20260901195105 | 55 | 176 | 5.0 | 6.0 | 0.00 | 0.00 | 0.00 | 84 | 1020.0 |
| 20260901194605 | 55 | 183 | 4.0 | 6.0 | 0.00 | 0.00 | 0.00 | 84 | 1019.9 |
| 20260901193104 | 55 | 174 | 3.0 | 6.0 | 0.00 | 0.00 | 0.00 | 85 | 1019.9 |
| 20260901192605 | 55 | 182 | 5.0 | 8.0 | 0.00 | 0.00 | 0.00 | 85 | 1019.8 |
| 20260901192104 | 55 | 206 | 2.0 | 3.0 | 0.00 | 0.00 | 0.00 | 86 | 1019.8 |
| 20260901191606 | 55 | 208 | 2.0 | 3.0 | 0.00 | 0.00 | 0.00 | 86 | 1019.8 |
| 20260901191105 | 55 | 203 | 2.0 | 3.0 | 0.00 | 0.00 | 0.00 | 86 | 1019.7 |
| 20260901190604 | 55 | 221 | 3.0 | 3.0 | 0.00 | 0.00 | 0.00 | 85 | 1019.7 |
| 20260901190105 | 55 | 229 | 1.0 | 3.0 | 0.00 | 0.00 | 0.00 | 85 | 1019.6 |
| 20260901185605 | 55 | 196 | 2.0 | 6.0 | 0.00 | 0.00 | 0.00 | 86 | 1019.6 |
| 20260901185104 | 55 | 177 | 3.0 | 3.0 | 0.00 | 0.00 | 0.00 | 86 | 1019.5 |
| 20260901184605 | 55 | 168 | 2.0 | 3.0 | 0.00 | 0.00 | 0.00 | 86 | 1019.6 |
| 20260901184105 | 55 | 166 | 2.0 | 3.0 | 0.00 | 0.00 | 0.00 | 86 | 1019.6 |
| 20260901183604 | 55 | 169 | 2.0 | 6.0 | 0.00 | 0.00 | 0.00 | 85 | 1019.6 |
| 20260901183107 | 55 | 202 | 3.0 | 5.0 | 0.00 | 0.00 | 0.00 | 85 | 1019.6 |
| 20260901182605 | 55 | 241 | 2.0 | 3.0 | 0.00 | 0.00 | 0.00 | 86 | 1019.6 |
| 20260901181604 | 55 | 214 | 3.0 | 5.0 | 0.00 | 0.00 | 0.00 | 86 | 1019.4 |
| 20260901181105 | 55 | 171 | 2.0 | 3.0 | 0.00 | 0.00 | 0.00 | 86 | 1019.5 |
| 20260901180604 | 55 | 162 | 0.0 | 2.0 | 0.00 | 0.00 | 0.00 | 86 | 1019.5 |
| 20260901175605 | 55 | 163 | 2.0 | 3.0 | 0.00 | 0.00 | 0.00 | 86 | 1019.4 |
| 20260901175104 | 55 | 163 | 1.0 | 3.0 | 0.00 | 0.00 | 0.00 | 86 | 1019.3 |
| 20260901174604 | 55 | 163 | 0.0 | 3.0 | 0.00 | 0.00 | 0.00 | 86 | 1019.3 |
| 20260901174104 | 55 | 162 | 1.0 | 3.0 | 0.00 | 0.00 | 0.00 | 86 | 1019.2 |
| 20260901173605 | 55 | 163 | 1.0 | 3.0 | 0.00 | 0.00 | 0.00 | 86 | 1019.2 |
| 20260901173104 | 55 | 162 | 1.0 | 2.0 | 0.00 | 0.00 | 0.00 | 86 | 1019.1 |
| 20260901172605 | 55 | 160 | 2.0 | 3.0 | 0.00 | 0.00 | 0.00 | 86 | 1019.2 |
| 20260901172105 | 55 | 162 | 2.0 | 3.0 | 0.00 | 0.00 | 0.00 | 85 | 1019.1 |
| 20260901171605 | 55 | 161 | 2.0 | 5.0 | 0.00 | 0.00 | 0.00 | 85 | 1019.1 |
| 20260901171105 | 55 | 159 | 3.0 | 5.0 | 0.00 | 0.00 | 0.00 | 85 | 1019.2 |
| 20260901170605 | 55 | 155 | 2.0 | 3.0 | 0.00 | 0.00 | 0.00 | 85 | 1019.2 |
| 20260901170105 | 55 | 153 | 2.0 | 2.0 | 0.00 | 0.00 | 0.00 | 86 | 1019.4 |
| 20260901165605 | 55 | 154 | 0.0 | 2.0 | 0.00 | 0.00 | 0.00 | 85 | 1019.4 |
| 20260901164605 | 55 | 154 | 2.0 | 3.0 | 0.00 | 0.00 | 0.00 | 86 | 1019.3 |
| 20260901163604 | 55 | 154 | 3.0 | 5.0 | 0.00 | 0.00 | 0.00 | 86 | 1019.2 |
| 20260901163105 | 55 | 152 | 3.0 | 6.0 | 0.00 | 0.00 | 0.00 | 86 | 1019.1 |
| 20260901162604 | 56 | 147 | 4.0 | 5.0 | 0.00 | 0.00 | 0.00 | 86 | 1019.2 |
| 20260901162105 | 56 | 147 | 3.0 | 3.0 | 0.00 | 0.00 | 0.00 | 86 | 1019.2 |
| 20260901161605 | 56 | 148 | 3.0 | 6.0 | 0.00 | 0.00 | 0.00 | 86 | 1019.1 |
| 20260901161104 | 56 | 147 | 4.0 | 6.0 | 0.00 | 0.00 | 0.00 | 86 | 1019.2 |
| 20260901160605 | 57 | 147 | 3.0 | 5.0 | 0.00 | 0.00 | 0.00 | 86 | 1019.2 |
| 20260901160105 | 57 | 147 | 3.0 | 5.0 | 0.00 | 0.00 | 0.00 | 85 | 1019.2 |
| 20260901155604 | 57 | 140 | 3.0 | 7.0 | 0.00 | 0.00 | 0.00 | 86 | 1019.2 |
| 20260901155104 | 57 | 143 | 3.0 | 7.0 | 0.00 | 0.00 | 0.00 | 86 | 1019.2 |
| 20260901154604 | 57 | 132 | 6.0 | 8.0 | 0.00 | 0.00 | 0.00 | 86 | 1019.3 |
| 20260901154105 | 58 | 133 | 3.0 | 8.0 | 0.00 | 0.00 | 0.00 | 85 | 1019.3 |
| 20260901153605 | 58 | 136 | 2.0 | 6.0 | 0.00 | 0.00 | 0.00 | 85 | 1019.2 |
| 20260901153104 | 58 | 137 | 3.0 | 8.0 | 0.00 | 0.00 | 0.00 | 86 | 1019.2 |
| 20260901152604 | 57 | 129 | 5.0 | 9.0 | 0.00 | 0.00 | 0.00 | 86 | 1019.1 |
| 20260901151604 | 57 | 143 | 4.0 | 7.0 | 0.00 | 0.00 | 0.00 | 86 | 1019.1 |
| 20260901151104 | 57 | 128 | 4.0 | 8.0 | 0.00 | 0.00 | 0.00 | 86 | 1019.1 |
| 20260901150604 | 58 | 124 | 7.0 | 10.0 | 0.00 | 0.00 | 0.00 | 85 | 1019.0 |
| 20260901150105 | 58 | 131 | 5.0 | 8.0 | 0.00 | 0.00 | 0.00 | 86 | 1019.1 |
| 20260901145604 | 58 | 125 | 6.0 | 10.0 | 0.00 | 0.00 | 0.00 | 85 | 1019.1 |
| 20260901143605 | 59 | 145 | 4.0 | 7.0 | 0.00 | 0.00 | 0.00 | 85 | 1019.2 |
| 20260901143104 | 59 | 128 | 3.0 | 8.0 | 0.00 | 0.00 | 0.00 | 85 | 1019.1 |
| 20260901142605 | 59 | 136 | 5.0 | 8.0 | 0.00 | 0.00 | 0.00 | 85 | 1019.2 |
| 20260901142104 | 59 | 140 | 5.0 | 8.0 | 0.00 | 0.00 | 0.00 | 84 | 1019.2 |
| 20260901141604 | 59 | 140 | 3.0 | 7.0 | 0.00 | 0.00 | 0.00 | 84 | 1019.3 |
| 20260901141105 | 59 | 140 | 5.0 | 7.0 | 0.00 | 0.00 | 0.00 | 83 | 1019.3 |
| 20260901140604 | 60 | 148 | 3.0 | 7.0 | 0.00 | 0.00 | 0.00 | 81 | 1019.3 |
| 20260901140105 | 61 | 140 | 3.0 | 7.0 | 0.00 | 0.00 | 0.00 | 80 | 1019.3 |
| 20260901135604 | 61 | 138 | 5.0 | 8.0 | 0.00 | 0.00 | 0.00 | 82 | 1019.3 |
| 20260901135105 | 61 | 140 | 5.0 | 8.0 | 0.00 | 0.00 | 0.00 | 80 | 1019.2 |
| 20260901134605 | 61 | 158 | 3.0 | 12.0 | 0.00 | 0.00 | 0.00 | 80 | 1019.4 |
| 20260901133605 | 61 | 144 | 4.0 | 8.0 | 0.00 | 0.00 | 0.00 | 80 | 1019.4 |
| 20260901132104 | 60 | 117 | 7.0 | 12.0 | 0.00 | 0.00 | 0.00 | 79 | 1019.3 |
| 20260901131604 | 59 | 134 | 3.0 | 8.0 | 0.00 | 0.00 | 0.00 | 81 | 1019.3 |
| 20260901130605 | 60 | 122 | 5.0 | 9.0 | 0.00 | 0.00 | 0.00 | 78 | 1019.5 |
| 20260901130104 | 60 | 132 | 5.0 | 8.0 | 0.00 | 0.00 | 0.00 | 78 | 1019.5 |
| 20260901125605 | 60 | 136 | 5.0 | 12.0 | 0.00 | 0.00 | 0.00 | 78 | 1019.5 |
| 20260901125104 | 60 | 128 | 5.0 | 10.0 | 0.00 | 0.00 | 0.00 | 80 | 1019.5 |
| 20260901124604 | 60 | 91 | 5.0 | 10.0 | 0.00 | 0.00 | 0.00 | 80 | 1019.6 |
| 20260901123605 | 60 | 127 | 4.0 | 10.0 | 0.00 | 0.00 | 0.00 | 79 | 1019.6 |
| 20260901123104 | 59 | 123 | 6.0 | 10.0 | 0.00 | 0.00 | 0.00 | 78 | 1019.6 |
| 20260901122105 | 60 | 118 | 7.0 | 12.0 | 0.00 | 0.00 | 0.00 | 76 | 1019.6 |
| 20260901121104 | 60 | 118 | 5.0 | 9.0 | 0.00 | 0.00 | 0.00 | 78 | 1019.6 |
| 20260901120104 | 60 | 136 | 5.0 | 9.0 | 0.00 | 0.00 | 0.00 | 79 | 1019.7 |
| 20260901115605 | 59 | 127 | 6.0 | 9.0 | 0.00 | 0.00 | 0.00 | 79 | 1019.7 |
| 20260901115104 | 59 | 130 | 5.0 | 8.0 | 0.00 | 0.00 | 0.00 | 77 | 1019.7 |
| 20260901114604 | 60 | 131 | 5.0 | 8.0 | 0.00 | 0.00 | 0.00 | 76 | 1019.7 |
| 20260901114104 | 60 | 125 | 6.0 | 12.0 | 0.00 | 0.00 | 0.00 | 77 | 1019.7 |
| 20260901113605 | 61 | 124 | 5.0 | 9.0 | 0.00 | 0.00 | 0.00 | 77 | 1019.7 |
| 20260901113104 | 61 | 118 | 5.0 | 12.0 | 0.00 | 0.00 | 0.00 | 76 | 1019.6 |
| 20260901112104 | 62 | 139 | 4.0 | 9.0 | 0.00 | 0.00 | 0.00 | 75 | 1019.6 |
| 20260901111604 | 62 | 119 | 3.0 | 9.0 | 0.00 | 0.00 | 0.00 | 75 | 1019.7 |
| 20260901111104 | 62 | 123 | 5.0 | 10.0 | 0.00 | 0.00 | 0.00 | 76 | 1019.7 |
| 20260901110105 | 62 | 127 | 2.0 | 8.0 | 0.00 | 0.00 | 0.00 | 78 | 1019.7 |
| 20260901105604 | 62 | 116 | 3.0 | 8.0 | 0.00 | 0.00 | 0.00 | 77 | 1019.8 |
| 20260901105104 | 61 | 149 | 2.0 | 7.0 | 0.00 | 0.00 | 0.00 | 78 | 1019.7 |
| 20260901104604 | 61 | 146 | 3.0 | 7.0 | 0.00 | 0.00 | 0.00 | 78 | 1019.8 |
| 20260901104104 | 61 | 129 | 5.0 | 8.0 | 0.00 | 0.00 | 0.00 | 77 | 1019.7 |
| 20260901103604 | 60 | 53 | 3.0 | 6.0 | 0.00 | 0.00 | 0.00 | 78 | 1019.7 |
| 20260901103104 | 60 | 128 | 4.0 | 9.0 | 0.00 | 0.00 | 0.00 | 78 | 1019.7 |
| 20260901101606 | 60 | 128 | 5.0 | 9.0 | 0.00 | 0.00 | 0.00 | 76 | 1019.9 |
| 20260901101106 | 60 | 73 | 2.0 | 9.0 | 0.00 | 0.00 | 0.00 | 78 | 1019.9 |
| 20260901100606 | 60 | 135 | 5.0 | 9.0 | 0.00 | 0.00 | 0.00 | 76 | 1019.9 |
| 20260901100106 | 60 | 121 | 6.0 | 10.0 | 0.00 | 0.00 | 0.00 | 77 | 1019.9 |
| 20260901095606 | 60 | 132 | 6.0 | 12.0 | 0.00 | 0.00 | 0.00 | 78 | 1019.9 |
| 20260901095105 | 60 | 124 | 5.0 | 12.0 | 0.00 | 0.00 | 0.00 | 78 | 1020.0 |
| 20260901094606 | 60 | 115 | 6.0 | 12.0 | 0.00 | 0.00 | 0.00 | 77 | 1020.0 |
| 20260901094106 | 60 | 122 | 5.0 | 10.0 | 0.00 | 0.00 | 0.00 | 76 | 1020.0 |
| 20260901093605 | 60 | 122 | 5.0 | 8.0 | 0.00 | 0.00 | 0.00 | 78 | 1020.1 |
| 20260901093106 | 59 | 144 | 3.0 | 8.0 | 0.00 | 0.00 | 0.00 | 79 | 1020.0 |
| 20260901092606 | 58 | 121 | 5.0 | 10.0 | 0.00 | 0.00 | 0.00 | 79 | 1020.0 |
| 20260901092106 | 57 | 113 | 4.0 | 9.0 | 0.00 | 0.00 | 0.00 | 79 | 1020.0 |
| 20260901091605 | 57 | 124 | 3.0 | 13.0 | 0.00 | 0.00 | 0.00 | 79 | 1019.9 |
| 20260901091105 | 57 | 116 | 3.0 | 9.0 | 0.00 | 0.00 | 0.00 | 78 | 1019.9 |
| 20260901090606 | 58 | 123 | 7.0 | 12.0 | 0.00 | 0.00 | 0.00 | 75 | 1019.9 |
| 20260901090106 | 59 | 128 | 4.0 | 9.0 | 0.00 | 0.00 | 0.00 | 76 | 1019.8 |
| 20260901085106 | 60 | 115 | 6.0 | 10.0 | 0.00 | 0.00 | 0.00 | 77 | 1019.6 |
| 20260901084606 | 59 | 86 | 4.0 | 9.0 | 0.00 | 0.00 | 0.00 | 77 | 1019.6 |
| 20260901084106 | 59 | 120 | 4.0 | 9.0 | 0.00 | 0.00 | 0.00 | 79 | 1019.7 |
| 20260901083606 | 59 | 124 | 3.0 | 8.0 | 0.00 | 0.00 | 0.00 | 80 | 1019.5 |
| 20260901083105 | 58 | 108 | 2.0 | 8.0 | 0.00 | 0.00 | 0.00 | 80 | 1019.5 |
| 20260901082606 | 57 | 119 | 5.0 | 9.0 | 0.00 | 0.00 | 0.00 | 81 | 1019.4 |
| 20260901082106 | 57 | 106 | 3.0 | 9.0 | 0.00 | 0.00 | 0.00 | 82 | 1019.4 |
| 20260901081106 | 58 | 87 | 5.0 | 10.0 | 0.00 | 0.00 | 0.00 | 80 | 1019.2 |
| 20260901080106 | 58 | 95 | 3.0 | 6.0 | 0.00 | 0.00 | 0.00 | 79 | 1019.1 |
| 20260901073606 | 58 | 109 | 3.0 | 10.0 | 0.00 | 0.00 | 0.00 | 82 | 1018.9 |
| 20260901072605 | 57 | 104 | 4.0 | 9.0 | 0.00 | 0.00 | 0.00 | 83 | 1018.9 |
| 20260901072106 | 57 | 94 | 3.0 | 7.0 | 0.00 | 0.00 | 0.00 | 84 | 1018.9 |
| 20260901071605 | 57 | 79 | 5.0 | 9.0 | 0.00 | 0.00 | 0.00 | 83 | 1018.9 |
| 20260901071105 | 57 | 72 | 3.0 | 9.0 | 0.00 | 0.00 | 0.00 | 85 | 1018.8 |
| 20260901070606 | 56 | 105 | 5.0 | 9.0 | 0.00 | 0.00 | 0.00 | 85 | 1018.7 |
| 20260901070105 | 56 | 64 | 3.0 | 7.0 | 0.00 | 0.00 | 0.00 | 85 | 1018.8 |
| 20260901064606 | 55 | 144 | 3.0 | 6.0 | 0.00 | 0.00 | 0.00 | 85 | 1018.7 |
| 20260901064105 | 55 | 124 | 3.0 | 8.0 | 0.00 | 0.00 | 0.00 | 84 | 1018.7 |
| 20260901063605 | 56 | 127 | 3.0 | 6.0 | 0.00 | 0.00 | 0.00 | 84 | 1018.7 |
| 20260901063106 | 56 | 122 | 5.0 | 9.0 | 0.00 | 0.00 | 0.00 | 83 | 1018.7 |
| 20260901062605 | 56 | 157 | 3.0 | 5.0 | 0.00 | 0.00 | 0.00 | 82 | 1018.7 |
| 20260901062105 | 57 | 162 | 3.0 | 6.0 | 0.00 | 0.00 | 0.00 | 81 | 1018.6 |
| 20260901061106 | 56 | 160 | 3.0 | 3.0 | 0.00 | 0.00 | 0.00 | 80 | 1018.6 |
| 20260901060606 | 55 | 4 | 2.0 | 5.0 | 0.00 | 0.00 | 0.00 | 82 | 1018.5 |
| 20260901055605 | 54 | 3 | 3.0 | 5.0 | 0.00 | 0.00 | 0.00 | 82 | 1018.5 |
| 20260901055106 | 53 | 3 | 3.0 | 5.0 | 0.00 | 0.00 | 0.00 | 82 | 1018.5 |
| 20260901054606 | 53 | 159 | 3.0 | 5.0 | 0.00 | 0.00 | 0.00 | 81 | 1018.3 |
| 20260901054105 | 54 | 161 | 2.0 | 5.0 | 0.00 | 0.00 | 0.00 | 82 | 1018.4 |
| 20260901053605 | 54 | 162 | 2.0 | 5.0 | 0.00 | 0.00 | 0.00 | 83 | 1018.3 |
| 20260901053106 | 54 | 139 | 4.0 | 5.0 | 0.00 | 0.00 | 0.00 | 81 | 1018.2 |
| 20260901052605 | 55 | 162 | 3.0 | 5.0 | 0.00 | 0.00 | 0.00 | 79 | 1018.1 |
| 20260901052105 | 55 | 4 | 1.0 | 3.0 | 0.00 | 0.00 | 0.00 | 79 | 1018.1 |
| 20260901051606 | 55 | 11 | 3.0 | 5.0 | 0.00 | 0.00 | 0.00 | 78 | 1018.0 |
| 20260901050605 | 55 | 0 | 4.0 | 6.0 | 0.00 | 0.00 | 0.00 | 80 | 1017.9 |
| 20260901050105 | 55 | 0 | 5.0 | 7.0 | 0.00 | 0.00 | 0.00 | 79 | 1017.9 |
| 20260901045606 | 55 | 0 | 4.0 | 6.0 | 0.00 | 0.00 | 0.00 | 80 | 1017.8 |
| 20260901045105 | 55 | 0 | 3.0 | 5.0 | 0.00 | 0.00 | 0.00 | 81 | 1017.8 |
| 20260901044106 | 55 | 3 | 4.0 | 5.0 | 0.00 | 0.00 | 0.00 | 82 | 1017.7 |
| 20260901043605 | 55 | 1 | 4.0 | 5.0 | 0.00 | 0.00 | 0.00 | 85 | 1017.6 |
| 20260901043105 | 55 | 1 | 3.0 | 5.0 | 0.00 | 0.00 | 0.00 | 85 | 1017.7 |
| 20260901042605 | 55 | 2 | 3.0 | 3.0 | 0.00 | 0.00 | 0.00 | 85 | 1017.6 |
| 20260901042106 | 55 | 2 | 1.0 | 3.0 | 0.00 | 0.00 | 0.00 | 83 | 1017.6 |
| 20260901041605 | 55 | 15 | 2.0 | 3.0 | 0.00 | 0.00 | 0.00 | 84 | 1017.6 |
| 20260901041105 | 55 | 0 | 3.0 | 5.0 | 0.00 | 0.00 | 0.00 | 84 | 1017.5 |
| 20260901040106 | 55 | 0 | 5.0 | 5.0 | 0.00 | 0.00 | 0.00 | 84 | 1017.4 |
| 20260901035605 | 55 | 0 | 3.0 | 6.0 | 0.00 | 0.00 | 0.00 | 85 | 1017.4 |
| 20260901035106 | 55 | 0 | 5.0 | 7.0 | 0.00 | 0.00 | 0.00 | 85 | 1017.4 |
| 20260901034605 | 55 | 163 | 3.0 | 5.0 | 0.00 | 0.00 | 0.00 | 85 | 1017.4 |
| 20260901034106 | 55 | 164 | 5.0 | 6.0 | 0.00 | 0.00 | 0.00 | 85 | 1017.4 |
| 20260901033606 | 55 | 156 | 5.0 | 6.0 | 0.00 | 0.00 | 0.00 | 85 | 1017.4 |
| 20260901033105 | 55 | 164 | 5.0 | 7.0 | 0.00 | 0.00 | 0.00 | 85 | 1017.4 |
| 20260901032606 | 55 | 158 | 5.0 | 6.0 | 0.00 | 0.00 | 0.00 | 85 | 1017.3 |
| 20260901032106 | 55 | 160 | 5.0 | 6.0 | 0.00 | 0.00 | 0.00 | 85 | 1017.4 |
| 20260901031606 | 55 | 159 | 3.0 | 5.0 | 0.00 | 0.00 | 0.00 | 85 | 1017.4 |
| 20260901031105 | 55 | 150 | 4.0 | 6.0 | 0.00 | 0.00 | 0.00 | 85 | 1017.3 |
| 20260901030605 | 55 | 162 | 5.0 | 7.0 | 0.00 | 0.00 | 0.00 | 85 | 1017.4 |
| 20260901030105 | 55 | 298 | 3.0 | 5.0 | 0.00 | 0.00 | 0.00 | 85 | 1017.4 |
| 20260901025606 | 55 | 304 | 3.0 | 3.0 | 0.00 | 0.00 | 0.00 | 85 | 1017.5 |
| 20260901025106 | 55 | 275 | 3.0 | 5.0 | 0.00 | 0.00 | 0.00 | 85 | 1017.5 |
| 20260901024606 | 55 | 296 | 2.0 | 3.0 | 0.00 | 0.00 | 0.00 | 85 | 1017.6 |